Weather History for Chino, CA

Change the Weather History Date:

Friday, September 27, 2013

  Actual Average Record
Temperature  
Mean Temperature 65 °F -  
Max Temperature 86 °F 84 °F 113 °F (2010)
Min Temperature 46 °F 53 °F 46 °F (2013)
Growing Degree Days 15 (Base 50)    
Moisture  
Dew Point 35 °F    
Average Humidity 42    
Maximum Humidity 86    
Minimum Humidity 8    
Precipitation  
Precipitation 0.00 in - - ()
Sea Level Pressure  
Sea Level Pressure 29.94 in    
Wind  
Wind Speed 2 mph (NW)    
Max Wind Speed 14 mph    
Max Gust Speed -    
Visibility 9 miles    
Events      
Averages and records for this station are not official NWS values.
T = Trace of Precipitation, MM = Missing Value Source: NWS Daily Summary

Daily Weather History Graph

Daily Weather History Graph

Search for Another Location

Airport:

Trip Planner

Search our weather history database for the weather conditions in past years. The results will help you decide how hot, cold, wet, or windy it might be!

Date:

Astronomy

Sep. 27, 2013 Rise Set
Actual Time 6:42 AM PDT 6:39 PM PDT
Civil Twilight 6:17 AM PDT 7:04 PM PDT
Nautical Twilight 5:48 AM PDT 7:33 PM PDT
Astronomical Twilight 5:19 AM PDT 8:02 PM PDT
Moon No Moon Rise 2:07 PM PDT
Length of Visible Light 12h 47m
Length of Day
11h 57m
Last Quarter, 44% of the Moon is Illuminated
Sep 27
Last Quarter
Oct 4
New
Oct 11
First Quarter
Oct 18
Full
Oct 26
Last Quarter

Hourly Weather History & Observations

Time (PDT) Temp. Dew Point Humidity Pressure Visibility Wind Dir Wind Speed Gust Speed Precip Events Conditions
12:53 AM 53.1 °F 45.0 °F 74% 29.90 in 7.0 mi Calm Calm - N/A   Clear
1:53 AM 52.0 °F 44.1 °F 74% 29.91 in 7.0 mi Calm Calm - N/A   Clear
2:53 AM 51.1 °F 46.0 °F 83% 29.90 in 6.0 mi Calm Calm - N/A   Haze
3:53 AM 51.1 °F 44.1 °F 77% 29.89 in 7.0 mi Calm Calm - N/A   Clear
4:53 AM 50.0 °F 43.0 °F 77% 29.90 in 8.0 mi Calm Calm - N/A   Clear
5:53 AM 51.1 °F 44.1 °F 77% 29.92 in 8.0 mi NNW 3.5 mph - N/A   Clear
6:53 AM 46.9 °F 43.0 °F 86% 29.95 in 10.0 mi Calm Calm - N/A   Clear
7:53 AM 54.0 °F 46.9 °F 77% 29.97 in 10.0 mi North 4.6 mph - N/A   Clear
8:53 AM 64.0 °F 45.0 °F 50% 29.97 in 10.0 mi Calm Calm - N/A   Clear
9:53 AM 70.0 °F 39.9 °F 33% 29.98 in 10.0 mi WNW 3.5 mph - N/A   Clear
10:53 AM 75.9 °F 37.0 °F 24% 29.97 in 10.0 mi Variable 4.6 mph - N/A   Clear
11:53 AM 80.1 °F 25.0 °F 13% 29.97 in 10.0 mi WNW 6.9 mph - N/A   Clear
12:53 PM 82.0 °F 24.1 °F 12% 29.95 in 10.0 mi Calm Calm - N/A   Clear
1:53 PM 84.0 °F 17.1 °F 8% 29.93 in 10.0 mi Variable 3.5 mph - N/A   Clear
2:53 PM 84.9 °F 23.0 °F 10% 29.91 in 10.0 mi Variable 4.6 mph - N/A   Clear
3:53 PM 84.9 °F 21.0 °F 10% 29.90 in 10.0 mi SW 3.5 mph - N/A   Clear
4:53 PM 84.9 °F 21.0 °F 10% 29.91 in 10.0 mi NE 3.5 mph - N/A   Clear
5:53 PM 79.0 °F 30.9 °F 17% 29.93 in 10.0 mi West 13.8 mph - N/A   Clear
6:53 PM 73.0 °F 28.9 °F 20% 29.95 in 10.0 mi West 11.5 mph - N/A   Clear
7:53 PM 66.9 °F 30.9 °F 26% 29.97 in 10.0 mi West 6.9 mph - N/A   Clear
8:53 PM 64.9 °F 32.0 °F 29% 29.98 in 10.0 mi West 4.6 mph - N/A   Clear
9:53 PM 62.1 °F 33.1 °F 34% 29.99 in 8.0 mi ENE 5.8 mph - N/A   Clear
10:53 PM 59.0 °F 35.1 °F 41% 30.01 in 7.0 mi Calm Calm - N/A   Clear
11:53 PM 59.0 °F 33.1 °F 38% 30.00 in 9.0 mi North 3.5 mph - N/A   Clear